CZ-6A DEB, 54501

Orbit data source: Space-Track

CZ-6A DEB, 54501 is space debris in SSO originally from a launch on Fri, 11 Nov 2022 UTC launched from the Taiyaun Space Center, China (TSC). Debris objects in space refer to the collection of defunct objects orbiting the Earth. Examples of debris include non-operational satellites, rocket bodies, and fragments generated from explosions, collisions, or faulty payload assembly.

Loading next visibility...
Identifier
54501, 2022-151JD
Orbit
SSO
Country
Flag of CNCN / PRC
Related business
Manufacturer
SAST
Mission
Spacecraft
Bus & Motor
Unknown
Mass
Unknown
Launch date (UTC)
2022-11-11 (4 years ago)
Launch vehicle
Unknown
Launch site
Taiyaun Space Center, China (TSC)
Object type
Payload
Rocket body
Debris
Shape & HBR
Unknown shape, 0.1 m
Radar Cross Section
Medium (>0.1 m² and <1 m²)

Expand to show TLE details & history
Last TLE update: 2 days ago

TLE from 2 days ago
0 CZ-6A DEB
1 54501U 22151JD  26170.98772054  .00003032  00000-0  87621-3 0  9999
2 54501  98.6576 179.1281 0198559 114.9837 247.2116 14.34415433187176
Epoch: 2026-06-19T23:42Z
TLE epoch observation values (Epoch: 2026-06-19T23:42:19.054Z)
Latitude
0.00003°
Longitude
-84.6601°
Altitude
837.358 km
Speed
7.404 km/s
True Right ascension
11h 56m 30s
True Declination
0° 00' 00"
Sunlit
Object was in daylight at epoch
Visualization orbit readout
Latitude
Unknown
Longitude
Unknown
Altitude
Unknown
Speed
Unknown
Apparent Right ascension
Unknown
Apparent Declination
Unknown
Sunlit
N/A
Visualization observer readout
Local Sidereal Time
21:23:36
Azimuth
Unknown
Elevation
Unknown
Doppler factor
Unknown
Orbital elements
Apogee altitude
916.16 km
Perigee altitude
632.13 km
Semi-major axis
7,152.282 km
Eccentricity
0.01986
Inclination
98.6576°
RAAN
179.1281°
Arg. of periapsis
114.9837°
True anomaly
245.13433°
Mean anomaly
247.2116°
Eccentric anomaly
246.17092°
Mean motion
3.5882 °/min
Orbital period
100.33 mins
BSTAR
0.00087621
Loading maneuver chart data...
Computing Atmospheric mass density...
Loading historical data...
Loading historical data...
Loading historical data...
Loading historical data...
Loading historical data...
Loading historical data...
Loading historical data...

Documentation

Showing up to 5 results
|